Lamar, CO

4:04 AM MDT on October 20, 2017 (GMT -0600)
Lamar Municipal

Weather History for KLAA - November, 2013

Change the Weather History Date:

Monday, November 11, 2013

  Actual Average Record
Temperature  
Mean Temperature 45 °F 42 °F  
Max Temperature 64 °F 59 °F 82 °F (2005)
Min Temperature 26 °F 25 °F 2 °F (1946)
Degree Days  
Heating Degree Days 20 23  
Month to date heating degree days 226 230  
Since 1 July heating degree days 638 697  
Cooling Degree Days 0 0  
Month to date cooling degree days 0 0  
Year to date cooling degree days 1568 1121  
Moisture  
Dew Point 27 °F    
Average Humidity 56    
Maximum Humidity 85    
Minimum Humidity 27    
Precipitation  
Precipitation 0.00 in 0.02 in 0.34 in (1992)
Month to date precipitation 0.07  
Year to date precipitation 10.13  
Sea Level Pressure  
Sea Level Pressure 30.36 in    
Wind  
Wind Speed 11 mph (North)    
Max Wind Speed 22 mph    
Max Gust Speed 28 mph    
Visibility 9 miles    
Events      
T = Trace of Precipitation, MM = Missing Value Source: NWS Daily Summary

Daily Weather History Graph

Daily Weather History Graph

Search for Another Location

Airport or City:

Trip Planner

Search our weather history database for the weather conditions in past years. The results will help you decide how hot, cold, wet, or windy it might be!

Date:

Astronomy

Nov. 11, 2013 Rise Set
Actual Time 6:27 AM MST 4:41 PM MST
Civil Twilight 5:59 AM MST 5:09 PM MST
Nautical Twilight 5:28 AM MST 5:41 PM MST
Astronomical Twilight 4:56 AM MST 6:12 PM MST
Moon 1:18 PM MST (11/11) 12:20 AM MST (11/11)
Length of Visible Light 11h 09m
Length of Day
10h 14m
Waxing Gibbous, 67% of the Moon is Illuminated
Nov 11
Waxing Gibbous
Nov 17
Full
Nov 25
Last Quarter
Dec 2
New
Dec 9
First Quarter

Hourly Weather History & Observations

Time (MST) Temp. Windchill Dew Point Humidity Pressure Visibility Wind Dir Wind Speed Gust Speed Precip Events Conditions
12:12 AM 32.0 °F - 28.4 °F 87% 30.18 in 10.0 mi Calm Calm - N/A   Overcast
12:38 AM 30.2 °F 25.4 °F 26.6 °F 86% 30.17 in 10.0 mi SSW 4.6 mph - N/A   Scattered Clouds
12:53 AM 30.0 °F - 24.1 °F 79% 30.17 in 10.0 mi Calm Calm - N/A   Clear
1:53 AM 27.0 °F 20.5 °F 23.0 °F 85% 30.17 in 10.0 mi SW 5.8 mph - N/A   Clear
2:53 AM 33.1 °F 26.1 °F 27.0 °F 78% 30.14 in 10.0 mi West 8.1 mph - N/A   Clear
3:53 AM 30.9 °F 23.5 °F 26.1 °F 82% 30.14 in 10.0 mi WSW 8.1 mph - N/A   Clear
4:53 AM 28.9 °F 21.9 °F 25.0 °F 85% 30.17 in 10.0 mi WSW 6.9 mph - N/A   Clear
5:53 AM 28.9 °F 23.9 °F 25.0 °F 85% 30.20 in 10.0 mi West 4.6 mph - N/A   Clear
6:53 AM 28.0 °F 20.8 °F 25.0 °F 88% 30.25 in 10.0 mi WSW 6.9 mph - N/A   Clear
7:53 AM 37.0 °F 29.8 °F 27.0 °F 67% 30.25 in 10.0 mi West 10.4 mph - N/A   Clear
8:53 AM 46.0 °F 40.6 °F 26.1 °F 46% 30.24 in 10.0 mi West 11.5 mph - N/A   Clear
9:53 AM 53.1 °F - 27.0 °F 37% 30.24 in 10.0 mi West 9.2 mph - N/A   Clear
10:53 AM 60.1 °F - 27.0 °F 28% 30.22 in 10.0 mi West 8.1 mph - N/A   Clear
11:53 AM 64.0 °F - 34.0 °F 33% 30.22 in 10.0 mi ENE 13.8 mph - N/A   Clear
12:53 PM 60.1 °F - 34.0 °F 38% 30.25 in 10.0 mi ENE 18.4 mph - N/A   Clear
1:53 PM 51.1 °F - 32.0 °F 48% 30.32 in 10.0 mi NE 19.6 mph - N/A   Clear
2:53 PM 43.0 °F 34.8 °F 30.9 °F 62% 30.36 in 10.0 mi NE 18.4 mph - N/A   Clear
3:21 PM 39.2 °F 29.8 °F 30.2 °F 70% 30.37 in 10.0 mi ENE 18.4 mph 27.6 mph N/A   Mostly Cloudy
3:53 PM 36.0 °F 25.6 °F 28.9 °F 76% 30.43 in 9.0 mi NE 18.4 mph - N/A   Overcast
4:53 PM 33.1 °F 21.9 °F 28.0 °F 82% 30.48 in 8.0 mi ENE 18.4 mph - N/A   Overcast
5:00 PM 33.8 °F 23.5 °F 28.4 °F 81% 30.43 in 7.0 mi ENE 16.1 mph - N/A   Overcast
5:53 PM 32.0 °F 22.5 °F 27.0 °F 82% 30.53 in 8.0 mi ENE 12.7 mph - N/A   Overcast
6:53 PM 30.9 °F 19.8 °F 27.0 °F 85% 30.58 in 8.0 mi NE 16.1 mph - N/A   Overcast
7:53 PM 30.0 °F 18.7 °F 26.1 °F 85% 30.61 in 8.0 mi NNE 16.1 mph - N/A   Overcast
8:53 PM 30.0 °F 19.5 °F 25.0 °F 82% 30.64 in 9.0 mi NE 13.8 mph - N/A   Overcast
9:21 PM 30.2 °F 20.2 °F 24.8 °F 80% 30.63 in 9.0 mi NNE 12.7 mph - N/A   Overcast
9:53 PM 28.9 °F 19.2 °F 24.1 °F 82% 30.67 in 9.0 mi NNE 11.5 mph - N/A   Overcast
10:53 PM 28.9 °F 21.1 °F 24.1 °F 82% 30.68 in 9.0 mi NE 8.1 mph - N/A   Overcast
11:53 PM 30.0 °F 25.2 °F 23.0 °F 75% 30.68 in 10.0 mi North 4.6 mph - N/A   Overcast